TimePDT,TemperatureF,Dew PointF,Humidity,Sea Level PressureIn,VisibilityMPH,Wind Direction,Wind SpeedMPH,Gust SpeedMPH,PrecipitationIn,Events,Conditions,WindDirDegrees,DateUTC
12:00 AM,26.8,25.3,94,29.92,-9999.0,Calm,Calm,-,N/A,,Unknown,0,2012-10-22 07:00:00
1:00 AM,25.9,24.6,95,29.92,-9999.0,Calm,Calm,-,N/A,,Unknown,0,2012-10-22 08:00:00
2:00 AM,27.7,26.4,95,29.92,-9999.0,Calm,Calm,-,N/A,,Unknown,0,2012-10-22 09:00:00
3:00 AM,26.8,25.2,94,29.91,-9999.0,Calm,Calm,-,N/A,,Unknown,0,2012-10-22 10:00:00
4:00 AM,25.3,24.1,95,29.90,-9999.0,Calm,Calm,-,N/A,,Unknown,0,2012-10-22 11:00:00
5:00 AM,24,22,90,29.90,,Calm,Calm,,,,,,2012-10-22 12:00:00
5:00 AM,24.3,22.3,92,29.90,-9999.0,Calm,Calm,-,N/A,,Unknown,0,2012-10-22 12:00:00
6:00 AM,25.3,23.7,94,29.90,-9999.0,Calm,Calm,-,N/A,,Unknown,0,2012-10-22 13:00:00
7:00 AM,25.7,24.1,94,29.89,-9999.0,Calm,Calm,-,N/A,,Unknown,0,2012-10-22 14:00:00
8:00 AM,25.2,23.7,94,29.89,-9999.0,Calm,Calm,-,N/A,,Unknown,0,2012-10-22 15:00:00
9:00 AM,26.2,24.8,94,29.88,-9999.0,Calm,Calm,-,N/A,,Unknown,0,2012-10-22 16:00:00
10:00 AM,29.1,26.2,89,29.84,-9999.0,SE,1.2,-,N/A,,Unknown,140,2012-10-22 17:00:00
11:00 AM,34,28,69,29.81,,Calm,Calm,,,,,,2012-10-22 18:00:00
11:00 AM,34.3,27.5,76,29.81,-9999.0,Calm,Calm,-,N/A,,Unknown,0,2012-10-22 18:00:00
12:00 PM,36.1,28.0,72,29.78,-9999.0,Calm,Calm,-,N/A,,Unknown,0,2012-10-22 19:00:00
1:00 PM,38.3,29.1,70,29.73,-9999.0,Calm,Calm,-,N/A,,Unknown,0,2012-10-22 20:00:00
2:00 PM,39.9,28.8,64,29.69,-9999.0,Calm,Calm,-,N/A,,Unknown,0,2012-10-22 21:00:00
3:00 PM,42.4,27.9,56,29.67,-9999.0,North,6.9,-,N/A,,Unknown,360,2012-10-22 22:00:00
4:00 PM,42.1,28.2,58,29.67,-9999.0,North,5.8,-,N/A,,Unknown,350,2012-10-22 23:00:00
5:00 PM,40,30,57,29.67,,West,8.1,,,,,280,2012-10-23 00:00:00
5:00 PM,39.7,30.0,68,29.67,-9999.0,West,8.1,-,N/A,,Unknown,280,2012-10-23 00:00:00
6:00 PM,37.9,31.6,78,29.67,-9999.0,SW,1.2,-,N/A,,Unknown,220,2012-10-23 01:00:00
7:00 PM,37.8,31.5,78,29.67,-9999.0,SSW,3.5,-,N/A,,Unknown,200,2012-10-23 02:00:00
8:00 PM,37.8,30.4,75,29.66,-9999.0,SW,1.2,-,N/A,,Unknown,230,2012-10-23 03:00:00
9:00 PM,36.1,31.8,84,29.66,-9999.0,SSE,1.2,-,N/A,,Unknown,150,2012-10-23 04:00:00
10:00 PM,34.0,31.8,92,29.67,-9999.0,SW,1.2,-,N/A,,Unknown,220,2012-10-23 05:00:00
11:00 PM,33,32,93,29.66,,Calm,Calm,,,,,,2012-10-23 06:00:00
11:00 PM,32.9,31.8,96,29.66,-9999.0,Calm,Calm,-,0.02,,Unknown,0,2012-10-23 06:00:00